Regional Weather Roundup
Issued by NWS

Home | Current Version | Previous Version | Text Only | Print | Product List | Glossary Off
Versions: 1 2 3 4 5 6 7 8 9 10 11 12 13 14 15 16 17 18 19 20 21 22 23 24 25 26 27

000
ASUS45 KTFX 290310
RWRMT
MONTANA REGIONAL WEATHER ROUNDUP
NATIONAL WEATHER SERVICE GREAT FALLS MT
900 PM MDT SUN AUG 28 2016

NOTE: "FAIR" INDICATES FEW OR NO CLOUDS BELOW 12000 FEET WITH NO
SIGNIFICANT WEATHER AND/OR OBSTRUCTIONS TO VISIBILITY.

MTZ001>007-043-290400-
WEST OF THE DIVIDE

CITY           SKY/WX    TMP DP  RH WIND       PRES   REMARKS
KALISPELL      MOCLDY    69  36  29 W6        30.11R
MISSOULA       CLEAR     70  36  28 NW6       30.14R
BUTTE          CLEAR     68  32  26 NW3       30.25R
MULLAN PASS    CLEAR     59  30  33 SW6       30.27S
DEER LODGE       N/A     66  34  30 NW10      30.22R
EUREKA           N/A     68  39  34 E6        30.11R
HAMILTON         N/A     66  43  42 E5        30.15R
LIBBY            N/A     66  39  37 CALM      30.11R
PLAINS           N/A     70  42  36 CALM      30.11R
RONAN            N/A     60  46  59 CALM      30.17R
THOMPSON FALLS   N/A     70  36  28 CALM      30.13R
$$

MTZ008-052>055-290400-
SOUTHWEST MONTANA

CITY           SKY/WX    TMP DP  RH WIND       PRES   REMARKS
BOZEMAN        CLOUDY    71  41  33 CALM      30.17R
DILLON         CLEAR     67  36  31 E8        30.18R
W YELLOWSTONE  CLOUDY    61  28  29 NE3       30.31R
ENNIS          CLEAR     68  39  34 N10       30.25R
THREE FORKS      N/A     64 -40   1 CALM      30.15R
TWIN BRIDGES     N/A     75  34  22 N10       30.15R
$$

MTZ009-010-012-014-046-048-049-054-290400-
EAST SLOPES AND CENTRAL MONTANA

CITY           SKY/WX    TMP DP  RH WIND       PRES   REMARKS
CUT BANK       MOCLDY    58  40  51 NE9       30.21R
GREAT FALLS    PTCLDY    65  45  48 NE12      30.18R
MALMSTROM AFB  PTCLDY    64  46  52 MISG      30.18R
HELENA         CLEAR     71  36  27 W3        30.15R
CHOTEAU          N/A     61  43  51 NE7       30.23R
CONRAD           N/A     61  48  62 N1        30.21R
$$

MTZ011-013-016-021-045-047-050-051-290400-
NORTH CENTRAL MONTANA

CITY           SKY/WX    TMP DP  RH WIND       PRES   REMARKS
HAVRE          CLEAR     63  45  51 MISG      30.18R
LEWISTOWN      PTCLDY    67  44  43 NE5       30.20R
N BAR RANCH    CLOUDY    68  43  40 NE8       30.24R
CHINOOK          N/A     64  46  52 N6        30.17R
$$

MTZ017>020-022>027-061-062-290400-
NORTHEAST MONTANA

CITY           SKY/WX    TMP DP  RH WIND       PRES   REMARKS
GLASGOW        CLOUDY    69  48  47 N6        30.10R
JORDAN           N/A     75  46  35 N6        30.10R
SIDNEY         CLEAR     74  50  42 N9        30.06R
WOLF POINT     CLEAR     73  48  41 N10       30.09R
POPLAR           N/A     70  48  46 N7        30.10R
SCOBEY           N/A     60  45  57 CALM      30.13R
$$

MTZ028>42-056>058-290400-
SOUTHCENTRAL AND SOUTHEAST MONTANA

CITY           SKY/WX    TMP DP  RH WIND       PRES   REMARKS
BAKER          PTCLDY    73  45  36 NE9       30.08R
BILLINGS       CLOUDY    77  42  28 NE12      30.11R
LIVINGSTON     MOCLDY    73  42  32 E12       30.18R
MILES CITY     CLEAR     77  43  29 NE10      30.05R
EKALAKA          N/A     75  41  29 NE10      30.08R
FORSYTH          N/A     77  45  31 N6        30.07R
LAUREL           N/A     76  41  28 N1        30.10R
ROUNDUP          N/A     73  43  34 N8        30.05R
$$

REGIONAL REPORTS...DAKOTAS

CITY           SKY/WX    TMP DP  RH WIND       PRES   REMARKS
WILLISTON      CLEAR     70  48  45 NE5       30.08R
MINOT          CLEAR     72  54  53 NW14      30.01R
DICKINSON      CLOUDY    75  44  33 N10       30.04R
CROSBY           N/A     59  48  67 NW6       30.11R
WATFORD CITY     N/A     68  50  52 N8        30.07R
BISMARCK       CLEAR     70  62  76 E6        29.96R
GRAND FORKS    CLOUDY    78  69  73 SE13      29.93R
FARGO          CLOUDY    82  73  74 SE15G23   29.94R
BUFFALO SD       N/A     74  47  38 N15       30.00R
RAPID CITY     CLEAR     71  50  47 NE13      30.04R
$$

REGIONAL REPORTS...WYOMING/IDAHO/WASHINGTON

CITY           SKY/WX    TMP DP  RH WIND       PRES   REMARKS
GILLETTE       CLEAR     60  36  40 S5        30.13R
SHERIDAN       CLEAR     67  44  43 CALM      30.12R
BUFFALO WY     CLEAR     69  32  25 W10       30.20R
CODY           PTCLDY    72  34  25 NW3       30.19R
YELLOWSTONE LA   N/A     56  36  47 CALM      30.43R
IDAHO FALLS    CLEAR     75  38  26 S10       30.18R
SALMON         CLEAR     72  39  30 NE6       30.13R
BOISE          PTCLDY    82  42  24 CALM      30.04R
SPOKANE        MOCLDY    75  33  21 CALM      30.08R
$$

REGIONAL REPORTS...ALBERTA

CITY           SKY/WX    TMP DP  RH WIND       PRES   REMARKS
EDMONTON       MOCLDY    46  39  76 N3        30.19R
CALGARY        CLOUDY    52  43  71 S7        30.20R
MEDICINE HAT   PTCLDY    55  45  67 NE6       30.20R
WATERTON GATE    N/A     48  41  76 NE2         N/A
MILK RIVER       N/A     52  43  71 NE8         N/A
ONEFOUR          N/A     54  43  66 N10         N/A
$$

REGIONAL REPORTS...SASKATCHEWAN

CITY           SKY/WX    TMP DP  RH WIND       PRES   REMARKS
SWIFT CURRENT  CLEAR     50  45  81 NW7       30.19R
REGINA         PTCLDY    55  46  71 NW10      30.13R
SASKATOON      CLOUDY    54  45  71 NW16      30.16R
CYPRESS HILLS    N/A     48  41  76 N5          N/A
VAL MARIE        N/A     57  43  58 N12         N/A
ROCKGLEN         N/A     57  46  67 N9          N/A
ASSINIBOIA       N/A     46  41  81 W3          N/A
$$




USA.gov is the U.S. government's official web portal to all federal, state and local government web resources and services.